STARLINK-32115

decayed
NORAD ID: 60074 Int'l Des: 2024-113 Owner: SPXS Country: US Constellation: starlink
LEOCIRCULAR

关于 STARLINK-32115

正在加载描述...

高度历史

Altitude vs Time

uPlot chart will show altitude changes over time

两行轨道根数

1 60074U 24113R 24194.83429603 .08592029 12528-4 35160-3 0 9998
2 60074 53.1488 289.5861 0010845 302.6528 159.7629 16.42810715 4605
Epoch: Jul 12, 2024 • Age: 10327 hours

当前状态

Position data unavailable
发射日期 Jun 19, 2024
运行时间 1.2 years
衰减日期 Jul 13, 2024
类型 internet

技术详情

分类 Payload
质量 730.00 kg
干质量 700.00 kg
总质量 730.00 kg
长度 0.30 m
直径 4.10 m
跨度 29.00 m
形状 Box + pan
制造商 SPXS
平台类型 Starlink V2M
阶段状态 Reentered
所有者/国家 SPXS/US

大型星座

Loading constellations...